Location: Campillo
(40.8621°N, 4.2488°W)
Time: 03:07:12
(UTC+00:00)

X-37B - Pass Details

Date: 05 August 2021
Orbit: 381 x 393 km, 45.0° (Epoch: 29 August)

Event Time Altitude Azimuth Distance (km) Brightness Sun altitude
Exits shadow 02:52:46 37° 72° (ENE) 615 2.0 -22.6°
Drops below altitude 10° 02:54:47 10° 69° (ENE) 1,397 4.2 -22.3°
Sets 02:56:51 0° 69° (ENE) 2,252 5.5 -22.1°
